owner,sensor,date,latitude,longitude,vertical_datum,wind_speed,wind_to_direction,wind_speed_of_gust,qcFlag 
DISL,ioos:station:DISL:DISL:1,2009-09-01T00:00:00Z,30.2513,-88.0778,9.68,1.13,341.4,-9999.0,'1111122,1111122,1111122' 
DISL,ioos:station:DISL:DISL:1,2009-09-01T00:30:00Z,30.2513,-88.0778,9.68,0.68,253.1,-9999.0,'1111122,1111122,1111122' 
DISL,ioos:station:DISL:DISL:1,2009-09-01T01:00:00Z,30.2513,-88.0778,9.68,0.16,181.6,-9999.0,'1111122,1111122,1111122' 
DISL,ioos:station:DISL:DISL:1,2009-09-01T01:30:00Z,30.2513,-88.0778,9.68,0.04,229.5,-9999.0,'1111122,1111122,1111122' 
DISL,ioos:station:DISL:DISL:1,2009-09-01T02:00:00Z,30.2513,-88.0778,9.68,0.46,221.6,-9999.0,'1111122,1111122,1111122' 
DISL,ioos:station:DISL:DISL:1,2009-09-01T02:30:00Z,30.2513,-88.0778,9.68,1.69,33.0,-9999.0,'1111122,1111122,1111122' 
DISL,ioos:station:DISL:DISL:1,2009-09-01T03:00:00Z,30.2513,-88.0778,9.68,3.67,56.03,-9999.0,'1111122,1111122,1111122' 
DISL,ioos:station:DISL:DISL:1,2009-09-01T03:30:00Z,30.2513,-88.0778,9.68,3.36,65.02,-9999.0,'1111122,1111122,1111122' 
DISL,ioos:station:DISL:DISL:1,2009-09-01T04:00:00Z,30.2513,-88.0778,9.68,3.12,40.51,-9999.0,'1111122,1111122,1111122' 
DISL,ioos:station:DISL:DISL:1,2009-09-01T04:30:00Z,30.2513,-88.0778,9.68,3.65,32.23,-9999.0,'1111122,1111122,1111122' 
DISL,ioos:station:DISL:DISL:1,2009-09-01T05:00:00Z,30.2513,-88.0778,9.68,4.81,32.74,-9999.0,'1111122,1111122,1111122' 
DISL,ioos:station:DISL:DISL:1,2009-09-01T05:30:00Z,30.2513,-88.0778,9.68,4.83,31.7,-9999.0,'1111122,1111122,1111122' 
DISL,ioos:station:DISL:DISL:1,2009-09-01T06:00:00Z,30.2513,-88.0778,9.68,5.48,31.69,-9999.0,'1111122,1111122,1111122' 
DISL,ioos:station:DISL:DISL:1,2009-09-01T06:30:00Z,30.2513,-88.0778,9.68,6.12,21.15,-9999.0,'1111122,1111122,1111122' 
DISL,ioos:station:DISL:DISL:1,2009-09-01T07:00:00Z,30.2513,-88.0778,9.68,6.92,20.52,-9999.0,'1111122,1111122,1111122' 
DISL,ioos:station:DISL:DISL:1,2009-09-01T07:30:00Z,30.2513,-88.0778,9.68,7.18,25.29,-9999.0,'1111122,1111122,1111122' 
DISL,ioos:station:DISL:DISL:1,2009-09-01T08:00:00Z,30.2513,-88.0778,9.68,7.08,32.18,-9999.0,'1111122,1111122,1111122' 
DISL,ioos:station:DISL:DISL:1,2009-09-01T08:30:00Z,30.2513,-88.0778,9.68,6.32,28.07,-9999.0,'1111122,1111122,1111122' 
DISL,ioos:station:DISL:DISL:1,2009-09-01T09:00:00Z,30.2513,-88.0778,9.68,5.73,31.56,-9999.0,'1111122,1111122,1111122' 
DISL,ioos:station:DISL:DISL:1,2009-09-01T09:30:00Z,30.2513,-88.0778,9.68,5.99,32.44,-9999.0,'1111122,1111122,1111122' 
DISL,ioos:station:DISL:DISL:1,2009-09-01T10:00:00Z,30.2513,-88.0778,9.68,5.56,14.37,-9999.0,'1111122,1111122,1111122' 
DISL,ioos:station:DISL:DISL:1,2009-09-01T10:30:00Z,30.2513,-88.0778,9.68,5.74,18.55,-9999.0,'1111122,1111122,1111122' 
DISL,ioos:station:DISL:DISL:1,2009-09-01T11:00:00Z,30.2513,-88.0778,9.68,6.17,15.38,-9999.0,'1111122,1111122,1111122' 
DISL,ioos:station:DISL:DISL:1,2009-09-01T11:30:00Z,30.2513,-88.0778,9.68,5.66,16.52,-9999.0,'1111122,1111122,1111122' 
DISL,ioos:station:DISL:DISL:1,2009-09-01T12:00:00Z,30.2513,-88.0778,9.68,5.48,18.41,-9999.0,'1111122,1111122,1111122' 
DISL,ioos:station:DISL:DISL:1,2009-09-01T12:30:00Z,30.2513,-88.0778,9.68,4.88,21.51,-9999.0,'1111122,1111122,1111122' 
DISL,ioos:station:DISL:DISL:1,2009-09-01T13:00:00Z,30.2513,-88.0778,9.68,4.84,12.27,-9999.0,'1111122,1111122,1111122' 
DISL,ioos:station:DISL:DISL:1,2009-09-01T13:30:00Z,30.2513,-88.0778,9.68,4.77,6.606,-9999.0,'1111122,1111122,1111122' 
DISL,ioos:station:DISL:DISL:1,2009-09-01T14:00:00Z,30.2513,-88.0778,9.68,5.04,9.53,-9999.0,'1111122,1111122,1111122' 
DISL,ioos:station:DISL:DISL:1,2009-09-01T14:30:00Z,30.2513,-88.0778,9.68,5.33,6.26,-9999.0,'1111122,1111122,1111122' 
DISL,ioos:station:DISL:DISL:1,2009-09-01T15:00:00Z,30.2513,-88.0778,9.68,5.06,3.854,-9999.0,'1111122,1111122,1111122' 
DISL,ioos:station:DISL:DISL:1,2009-09-01T15:30:00Z,30.2513,-88.0778,9.68,4.83,5.471,-9999.0,'1111122,1111122,1111122' 
DISL,ioos:station:DISL:DISL:1,2009-09-01T16:00:00Z,30.2513,-88.0778,9.68,4.38,359.8,-9999.0,'1111122,1111122,1111122' 
DISL,ioos:station:DISL:DISL:1,2009-09-01T16:30:00Z,30.2513,-88.0778,9.68,4.4,359.8,-9999.0,'1111122,1111122,1111122' 
DISL,ioos:station:DISL:DISL:1,2009-09-01T17:00:00Z,30.2513,-88.0778,9.68,3.75,18.54,-9999.0,'1111122,1111122,1111122' 
DISL,ioos:station:DISL:DISL:1,2009-09-01T17:30:00Z,30.2513,-88.0778,9.68,4.16,24.98,-9999.0,'1111122,1111122,1111122' 
DISL,ioos:station:DISL:DISL:1,2009-09-01T18:00:00Z,30.2513,-88.0778,9.68,3.37,34.25,-9999.0,'1111122,1111122,1111122' 
DISL,ioos:station:DISL:DISL:1,2009-09-01T18:30:00Z,30.2513,-88.0778,9.68,4.14,34.0,-9999.0,'1111122,1111122,1111122' 
DISL,ioos:station:DISL:DISL:1,2009-09-01T19:00:00Z,30.2513,-88.0778,9.68,4.11,23.69,-9999.0,'1111122,1111122,1111122' 
DISL,ioos:station:DISL:DISL:1,2009-09-01T19:30:00Z,30.2513,-88.0778,9.68,3.06,19.35,-9999.0,'1111122,1111122,1111122' 
DISL,ioos:station:DISL:DISL:1,2009-09-01T20:00:00Z,30.2513,-88.0778,9.68,1.78,358.7,-9999.0,'1111122,1111122,1111122' 
DISL,ioos:station:DISL:DISL:1,2009-09-01T20:30:00Z,30.2513,-88.0778,9.68,2.22,16.1,-9999.0,'1111122,1111122,1111122' 
DISL,ioos:station:DISL:DISL:1,2009-09-01T21:00:00Z,30.2513,-88.0778,9.68,1.26,325.5,-9999.0,'1111122,1111122,1111122' 
DISL,ioos:station:DISL:DISL:1,2009-09-01T21:30:00Z,30.2513,-88.0778,9.68,0.78,310.2,-9999.0,'1111122,1111122,1111122' 
DISL,ioos:station:DISL:DISL:1,2009-09-01T22:00:00Z,30.2513,-88.0778,9.68,0.82,317.8,-9999.0,'1111122,1111122,1111122' 
DISL,ioos:station:DISL:DISL:1,2009-09-01T22:30:00Z,30.2513,-88.0778,9.68,0.58,259.4,-9999.0,'1111122,1111122,1111122' 
DISL,ioos:station:DISL:DISL:1,2009-09-01T23:00:00Z,30.2513,-88.0778,9.68,1.41,226.5,-9999.0,'1111122,1111122,1111122' 
DISL,ioos:station:DISL:DISL:1,2009-09-01T23:30:00Z,30.2513,-88.0778,9.68,1.49,255.7,-9999.0,'1111122,1111122,1111122' 
DISL,ioos:station:DISL:DISL:1,2009-09-02T00:00:00Z,30.2513,-88.0778,9.68,1.4,249.6,-9999.0,'1111122,1111122,1111122' 
DISL,ioos:station:DISL:DISL:1,2009-09-02T00:30:00Z,30.2513,-88.0778,9.68,2.01,291.6,-9999.0,'1111122,1111122,1111122' 
DISL,ioos:station:DISL:DISL:1,2009-09-02T01:00:00Z,30.2513,-88.0778,9.68,5.03,339.2,-9999.0,'1111122,1111122,1111122' 
DISL,ioos:station:DISL:DISL:1,2009-09-02T01:30:00Z,30.2513,-88.0778,9.68,6.62,17.22,-9999.0,'1111122,1111122,1111122' 
DISL,ioos:station:DISL:DISL:1,2009-09-02T02:00:00Z,30.2513,-88.0778,9.68,6.37,12.23,-9999.0,'1111122,1111122,1111122' 
DISL,ioos:station:DISL:DISL:1,2009-09-02T02:30:00Z,30.2513,-88.0778,9.68,6.44,13.92,-9999.0,'1111122,1111122,1111122' 
DISL,ioos:station:DISL:DISL:1,2009-09-02T03:00:00Z,30.2513,-88.0778,9.68,7.1,11.8,-9999.0,'1111122,1111122,1111122' 
DISL,ioos:station:DISL:DISL:1,2009-09-02T03:30:00Z,30.2513,-88.0778,9.68,7.51,14.97,-9999.0,'1111122,1111122,1111122' 
DISL,ioos:station:DISL:DISL:1,2009-09-02T04:00:00Z,30.2513,-88.0778,9.68,8.02,12.9,-9999.0,'1111122,1111122,1111122' 
DISL,ioos:station:DISL:DISL:1,2009-09-02T04:30:00Z,30.2513,-88.0778,9.68,7.17,13.2,-9999.0,'1111122,1111122,1111122' 
DISL,ioos:station:DISL:DISL:1,2009-09-02T05:00:00Z,30.2513,-88.0778,9.68,7.11,5.952,-9999.0,'1111122,1111122,1111122' 
DISL,ioos:station:DISL:DISL:1,2009-09-02T05:30:00Z,30.2513,-88.0778,9.68,7.88,14.91,-9999.0,'1111122,1111122,1111122' 
DISL,ioos:station:DISL:DISL:1,2009-09-02T06:00:00Z,30.2513,-88.0778,9.68,7.85,9.27,-9999.0,'1111122,1111122,1111122' 
DISL,ioos:station:DISL:DISL:1,2009-09-02T06:30:00Z,30.2513,-88.0778,9.68,7.41,11.34,-9999.0,'1111122,1111122,1111122' 
DISL,ioos:station:DISL:DISL:1,2009-09-02T07:00:00Z,30.2513,-88.0778,9.68,6.15,11.04,-9999.0,'1111122,1111122,1111122' 
DISL,ioos:station:DISL:DISL:1,2009-09-02T07:30:00Z,30.2513,-88.0778,9.68,6.62,5.605,-9999.0,'1111122,1111122,1111122' 
DISL,ioos:station:DISL:DISL:1,2009-09-02T08:00:00Z,30.2513,-88.0778,9.68,5.93,6.257,-9999.0,'1111122,1111122,1111122' 
DISL,ioos:station:DISL:DISL:1,2009-09-02T08:30:00Z,30.2513,-88.0778,9.68,6.49,12.76,-9999.0,'1111122,1111122,1111122' 
DISL,ioos:station:DISL:DISL:1,2009-09-02T09:00:00Z,30.2513,-88.0778,9.68,5.9,10.24,-9999.0,'1111122,1111122,1111122' 
DISL,ioos:station:DISL:DISL:1,2009-09-02T09:30:00Z,30.2513,-88.0778,9.68,5.46,9.88,-9999.0,'1111122,1111122,1111122' 
DISL,ioos:station:DISL:DISL:1,2009-09-02T10:00:00Z,30.2513,-88.0778,9.68,5.07,13.84,-9999.0,'1111122,1111122,1111122' 
DISL,ioos:station:DISL:DISL:1,2009-09-02T10:30:00Z,30.2513,-88.0778,9.68,5.27,15.01,-9999.0,'1111122,1111122,1111122' 
DISL,ioos:station:DISL:DISL:1,2009-09-02T11:00:00Z,30.2513,-88.0778,9.68,5.45,12.52,-9999.0,'1111122,1111122,1111122' 
DISL,ioos:station:DISL:DISL:1,2009-09-02T11:30:00Z,30.2513,-88.0778,9.68,5.38,23.52,-9999.0,'1111122,1111122,1111122' 
DISL,ioos:station:DISL:DISL:1,2009-09-02T12:00:00Z,30.2513,-88.0778,9.68,4.69,26.28,-9999.0,'1111122,1111122,1111122' 
DISL,ioos:station:DISL:DISL:1,2009-09-02T12:30:00Z,30.2513,-88.0778,9.68,4.6,25.45,-9999.0,'1111122,1111122,1111122' 
DISL,ioos:station:DISL:DISL:1,2009-09-02T13:00:00Z,30.2513,-88.0778,9.68,4.85,29.48,-9999.0,'1111122,1111122,1111122' 
DISL,ioos:station:DISL:DISL:1,2009-09-02T13:30:00Z,30.2513,-88.0778,9.68,4.95,31.54,-9999.0,'1111122,1111122,1111122' 
DISL,ioos:station:DISL:DISL:1,2009-09-02T14:00:00Z,30.2513,-88.0778,9.68,4.62,37.21,-9999.0,'1111122,1111122,1111122' 
DISL,ioos:station:DISL:DISL:1,2009-09-02T14:30:00Z,30.2513,-88.0778,9.68,4.33,36.92,-9999.0,'1111122,1111122,1111122' 
DISL,ioos:station:DISL:DISL:1,2009-09-02T15:00:00Z,30.2513,-88.0778,9.68,3.99,40.09,-9999.0,'1111122,1111122,1111122' 
DISL,ioos:station:DISL:DISL:1,2009-09-02T15:30:00Z,30.2513,-88.0778,9.68,4.06,30.04,-9999.0,'1111122,1111122,1111122' 
DISL,ioos:station:DISL:DISL:1,2009-09-02T16:00:00Z,30.2513,-88.0778,9.68,4.14,23.25,-9999.0,'1111122,1111122,1111122' 
DISL,ioos:station:DISL:DISL:1,2009-09-02T16:30:00Z,30.2513,-88.0778,9.68,3.51,18.38,-9999.0,'1111122,1111122,1111122' 
DISL,ioos:station:DISL:DISL:1,2009-09-02T17:00:00Z,30.2513,-88.0778,9.68,3.08,31.61,-9999.0,'1111122,1111122,1111122' 
DISL,ioos:station:DISL:DISL:1,2009-09-02T17:30:00Z,30.2513,-88.0778,9.68,2.6,14.92,-9999.0,'1111122,1111122,1111122' 
DISL,ioos:station:DISL:DISL:1,2009-09-02T18:00:00Z,30.2513,-88.0778,9.68,1.83,355.4,-9999.0,'1111122,1111122,1111122' 
DISL,ioos:station:DISL:DISL:1,2009-09-02T18:30:00Z,30.2513,-88.0778,9.68,1.89,333.3,-9999.0,'1111122,1111122,1111122' 
DISL,ioos:station:DISL:DISL:1,2009-09-02T19:00:00Z,30.2513,-88.0778,9.68,2.3,337.0,-9999.0,'1111122,1111122,1111122' 
DISL,ioos:station:DISL:DISL:1,2009-09-02T19:30:00Z,30.2513,-88.0778,9.68,1.78,10.73,-9999.0,'1111122,1111122,1111122' 
DISL,ioos:station:DISL:DISL:1,2009-09-02T20:00:00Z,30.2513,-88.0778,9.68,1.9,25.17,-9999.0,'1111122,1111122,1111122' 
DISL,ioos:station:DISL:DISL:1,2009-09-02T20:30:00Z,30.2513,-88.0778,9.68,1.72,61.66,-9999.0,'1111122,1111122,1111122' 
DISL,ioos:station:DISL:DISL:1,2009-09-02T21:00:00Z,30.2513,-88.0778,9.68,2.09,102.5,-9999.0,'1111122,1111122,1111122' 
DISL,ioos:station:DISL:DISL:1,2009-09-02T21:30:00Z,30.2513,-88.0778,9.68,1.66,124.8,-9999.0,'1111122,1111122,1111122' 
DISL,ioos:station:DISL:DISL:1,2009-09-02T22:00:00Z,30.2513,-88.0778,9.68,1.04,130.9,-9999.0,'1111122,1111122,1111122' 
DISL,ioos:station:DISL:DISL:1,2009-09-02T22:30:00Z,30.2513,-88.0778,9.68,2.2,159.7,-9999.0,'1111122,1111122,1111122' 
DISL,ioos:station:DISL:DISL:1,2009-09-02T23:00:00Z,30.2513,-88.0778,9.68,1.9,137.3,-9999.0,'1111122,1111122,1111122' 
DISL,ioos:station:DISL:DISL:1,2009-09-02T23:30:00Z,30.2513,-88.0778,9.68,6.1,42.75,-9999.0,'1111122,1111122,1111122' 
DISL,ioos:station:DISL:DISL:1,2009-09-03T00:00:00Z,30.2513,-88.0778,9.68,9.12,70.2,-9999.0,'1111122,1111122,1111122' 
DISL,ioos:station:DISL:DISL:1,2009-09-03T00:30:00Z,30.2513,-88.0778,9.68,7.28,64.45,-9999.0,'1111122,1111122,1111122' 
DISL,ioos:station:DISL:DISL:1,2009-09-03T01:00:00Z,30.2513,-88.0778,9.68,8.27,65.97,-9999.0,'1111122,1111122,1111122' 
DISL,ioos:station:DISL:DISL:1,2009-09-03T01:30:00Z,30.2513,-88.0778,9.68,9.33,53.95,-9999.0,'1111122,1111122,1111122' 
DISL,ioos:station:DISL:DISL:1,2009-09-03T02:00:00Z,30.2513,-88.0778,9.68,8.52,51.92,-9999.0,'1111122,1111122,1111122' 
DISL,ioos:station:DISL:DISL:1,2009-09-03T02:30:00Z,30.2513,-88.0778,9.68,8.93,61.31,-9999.0,'1111122,1111122,1111122' 
DISL,ioos:station:DISL:DISL:1,2009-09-03T03:00:00Z,30.2513,-88.0778,9.68,9.38,57.7,-9999.0,'1111122,1111122,1111122' 
DISL,ioos:station:DISL:DISL:1,2009-09-03T03:30:00Z,30.2513,-88.0778,9.68,8.84,59.76,-9999.0,'1111122,1111122,1111122' 
DISL,ioos:station:DISL:DISL:1,2009-09-03T04:00:00Z,30.2513,-88.0778,9.68,8.54,67.45,-9999.0,'1111122,1111122,1111122' 
DISL,ioos:station:DISL:DISL:1,2009-09-03T04:30:00Z,30.2513,-88.0778,9.68,7.65,63.03,-9999.0,'1111122,1111122,1111122' 
DISL,ioos:station:DISL:DISL:1,2009-09-03T05:00:00Z,30.2513,-88.0778,9.68,6.81,61.01,-9999.0,'1111122,1111122,1111122' 
DISL,ioos:station:DISL:DISL:1,2009-09-03T05:30:00Z,30.2513,-88.0778,9.68,6.13,52.83,-9999.0,'1111122,1111122,1111122' 
DISL,ioos:station:DISL:DISL:1,2009-09-03T06:00:00Z,30.2513,-88.0778,9.68,5.68,45.5,-9999.0,'1111122,1111122,1111122' 
DISL,ioos:station:DISL:DISL:1,2009-09-03T06:30:00Z,30.2513,-88.0778,9.68,5.07,45.21,-9999.0,'1111122,1111122,1111122' 
DISL,ioos:station:DISL:DISL:1,2009-09-03T07:00:00Z,30.2513,-88.0778,9.68,4.91,36.3,-9999.0,'1111122,1111122,1111122' 
DISL,ioos:station:DISL:DISL:1,2009-09-03T07:30:00Z,30.2513,-88.0778,9.68,4.95,30.91,-9999.0,'1111122,1111122,1111122' 
DISL,ioos:station:DISL:DISL:1,2009-09-03T08:00:00Z,30.2513,-88.0778,9.68,5.36,38.03,-9999.0,'1111122,1111122,1111122' 
DISL,ioos:station:DISL:DISL:1,2009-09-03T08:30:00Z,30.2513,-88.0778,9.68,6.53,29.47,-9999.0,'1111122,1111122,1111122' 
DISL,ioos:station:DISL:DISL:1,2009-09-03T09:00:00Z,30.2513,-88.0778,9.68,6.4,46.15,-9999.0,'1111122,1111122,1111122' 
DISL,ioos:station:DISL:DISL:1,2009-09-03T09:30:00Z,30.2513,-88.0778,9.68,5.76,22.78,-9999.0,'1111122,1111122,1111122' 
DISL,ioos:station:DISL:DISL:1,2009-09-03T10:00:00Z,30.2513,-88.0778,9.68,6.0,39.59,-9999.0,'1111122,1111122,1111122' 
DISL,ioos:station:DISL:DISL:1,2009-09-03T10:30:00Z,30.2513,-88.0778,9.68,5.49,23.58,-9999.0,'1111122,1111122,1111122' 
DISL,ioos:station:DISL:DISL:1,2009-09-03T11:00:00Z,30.2513,-88.0778,9.68,5.81,28.69,-9999.0,'1111122,1111122,1111122' 
DISL,ioos:station:DISL:DISL:1,2009-09-03T11:30:00Z,30.2513,-88.0778,9.68,6.31,32.52,-9999.0,'1111122,1111122,1111122' 
DISL,ioos:station:DISL:DISL:1,2009-09-03T12:00:00Z,30.2513,-88.0778,9.68,7.06,40.88,-9999.0,'1111122,1111122,1111122' 
DISL,ioos:station:DISL:DISL:1,2009-09-03T12:30:00Z,30.2513,-88.0778,9.68,6.39,47.85,-9999.0,'1111122,1111122,1111122' 
DISL,ioos:station:DISL:DISL:1,2009-09-03T13:00:00Z,30.2513,-88.0778,9.68,6.38,65.16,-9999.0,'1111122,1111122,1111122' 
DISL,ioos:station:DISL:DISL:1,2009-09-03T13:30:00Z,30.2513,-88.0778,9.68,5.73,61.72,-9999.0,'1111122,1111122,1111122' 
DISL,ioos:station:DISL:DISL:1,2009-09-03T14:00:00Z,30.2513,-88.0778,9.68,6.57,72.9,-9999.0,'1111122,1111122,1111122' 
DISL,ioos:station:DISL:DISL:1,2009-09-03T14:30:00Z,30.2513,-88.0778,9.68,6.14,67.14,-9999.0,'1111122,1111122,1111122' 
DISL,ioos:station:DISL:DISL:1,2009-09-03T15:00:00Z,30.2513,-88.0778,9.68,6.94,68.09,-9999.0,'1111122,1111122,1111122' 
DISL,ioos:station:DISL:DISL:1,2009-09-03T15:30:00Z,30.2513,-88.0778,9.68,6.06,76.4,-9999.0,'1111122,1111122,1111122' 
DISL,ioos:station:DISL:DISL:1,2009-09-03T16:00:00Z,30.2513,-88.0778,9.68,6.58,82.4,-9999.0,'1111122,1111122,1111122' 
DISL,ioos:station:DISL:DISL:1,2009-09-03T16:30:00Z,30.2513,-88.0778,9.68,6.18,79.8,-9999.0,'1111122,1111122,1111122' 
DISL,ioos:station:DISL:DISL:1,2009-09-03T17:00:00Z,30.2513,-88.0778,9.68,5.33,57.73,-9999.0,'1111122,1111122,1111122' 
DISL,ioos:station:DISL:DISL:1,2009-09-03T17:30:00Z,30.2513,-88.0778,9.68,5.17,66.96,-9999.0,'1111122,1111122,1111122' 
DISL,ioos:station:DISL:DISL:1,2009-09-03T18:00:00Z,30.2513,-88.0778,9.68,4.83,51.42,-9999.0,'1111122,1111122,1111122' 
DISL,ioos:station:DISL:DISL:1,2009-09-03T18:30:00Z,30.2513,-88.0778,9.68,4.01,45.02,-9999.0,'1111122,1111122,1111122' 
DISL,ioos:station:DISL:DISL:1,2009-09-03T19:00:00Z,30.2513,-88.0778,9.68,3.83,25.19,-9999.0,'1111122,1111122,1111122' 
DISL,ioos:station:DISL:DISL:1,2009-09-03T19:30:00Z,30.2513,-88.0778,9.68,3.0,32.38,-9999.0,'1111122,1111122,1111122' 
DISL,ioos:station:DISL:DISL:1,2009-09-03T20:00:00Z,30.2513,-88.0778,9.68,1.84,26.5,-9999.0,'1111122,1111122,1111122' 
DISL,ioos:station:DISL:DISL:1,2009-09-03T20:30:00Z,30.2513,-88.0778,9.68,1.33,70.6,-9999.0,'1111122,1111122,1111122' 
DISL,ioos:station:DISL:DISL:1,2009-09-03T21:00:00Z,30.2513,-88.0778,9.68,1.59,88.5,-9999.0,'1111122,1111122,1111122' 
DISL,ioos:station:DISL:DISL:1,2009-09-03T21:30:00Z,30.2513,-88.0778,9.68,3.51,95.7,-9999.0,'1111122,1111122,1111122' 
DISL,ioos:station:DISL:DISL:1,2009-09-03T22:00:00Z,30.2513,-88.0778,9.68,4.7,94.7,-9999.0,'1111122,1111122,1111122' 
DISL,ioos:station:DISL:DISL:1,2009-09-03T22:30:00Z,30.2513,-88.0778,9.68,5.37,53.02,-9999.0,'1111122,1111122,1111122' 
DISL,ioos:station:DISL:DISL:1,2009-09-03T23:00:00Z,30.2513,-88.0778,9.68,4.68,39.22,-9999.0,'1111122,1111122,1111122' 
DISL,ioos:station:DISL:DISL:1,2009-09-03T23:30:00Z,30.2513,-88.0778,9.68,7.48,65.16,-9999.0,'1111122,1111122,1111122' 
DISL,ioos:station:DISL:DISL:1,2009-09-04T00:00:00Z,30.2513,-88.0778,9.68,6.25,65.86,-9999.0,'1111122,1111122,1111122' 
DISL,ioos:station:DISL:DISL:1,2009-09-04T00:30:00Z,30.2513,-88.0778,9.68,5.25,71.3,-9999.0,'1111122,1111122,1111122' 
DISL,ioos:station:DISL:DISL:1,2009-09-04T01:00:00Z,30.2513,-88.0778,9.68,4.73,57.28,-9999.0,'1111122,1111122,1111122' 
DISL,ioos:station:DISL:DISL:1,2009-09-04T01:30:00Z,30.2513,-88.0778,9.68,4.22,60.99,-9999.0,'1111122,1111122,1111122' 
DISL,ioos:station:DISL:DISL:1,2009-09-04T02:00:00Z,30.2513,-88.0778,9.68,4.3,46.6,-9999.0,'1111122,1111122,1111122' 
DISL,ioos:station:DISL:DISL:1,2009-09-04T02:30:00Z,30.2513,-88.0778,9.68,5.19,48.33,-9999.0,'1111122,1111122,1111122' 
DISL,ioos:station:DISL:DISL:1,2009-09-04T03:00:00Z,30.2513,-88.0778,9.68,5.36,53.74,-9999.0,'1111122,1111122,1111122' 
DISL,ioos:station:DISL:DISL:1,2009-09-04T03:30:00Z,30.2513,-88.0778,9.68,4.52,65.37,-9999.0,'1111122,1111122,1111122' 
DISL,ioos:station:DISL:DISL:1,2009-09-04T04:00:00Z,30.2513,-88.0778,9.68,4.53,66.0,-9999.0,'1111122,1111122,1111122' 
DISL,ioos:station:DISL:DISL:1,2009-09-04T04:30:00Z,30.2513,-88.0778,9.68,4.74,65.6,-9999.0,'1111122,1111122,1111122' 
DISL,ioos:station:DISL:DISL:1,2009-09-04T05:00:00Z,30.2513,-88.0778,9.68,4.44,57.7,-9999.0,'1111122,1111122,1111122' 
DISL,ioos:station:DISL:DISL:1,2009-09-04T05:30:00Z,30.2513,-88.0778,9.68,4.49,62.81,-9999.0,'1111122,1111122,1111122' 
DISL,ioos:station:DISL:DISL:1,2009-09-04T06:00:00Z,30.2513,-88.0778,9.68,4.96,61.95,-9999.0,'1111122,1111122,1111122' 
DISL,ioos:station:DISL:DISL:1,2009-09-04T06:30:00Z,30.2513,-88.0778,9.68,5.23,72.1,-9999.0,'1111122,1111122,1111122' 
DISL,ioos:station:DISL:DISL:1,2009-09-04T07:00:00Z,30.2513,-88.0778,9.68,5.75,74.2,-9999.0,'1111122,1111122,1111122' 
DISL,ioos:station:DISL:DISL:1,2009-09-04T07:30:00Z,30.2513,-88.0778,9.68,4.47,63.6,-9999.0,'1111122,1111122,1111122' 
DISL,ioos:station:DISL:DISL:1,2009-09-04T08:00:00Z,30.2513,-88.0778,9.68,5.51,64.38,-9999.0,'1111122,1111122,1111122' 
DISL,ioos:station:DISL:DISL:1,2009-09-04T08:30:00Z,30.2513,-88.0778,9.68,5.0,65.27,-9999.0,'1111122,1111122,1111122' 
DISL,ioos:station:DISL:DISL:1,2009-09-04T09:00:00Z,30.2513,-88.0778,9.68,4.5,50.85,-9999.0,'1111122,1111122,1111122' 
DISL,ioos:station:DISL:DISL:1,2009-09-04T09:30:00Z,30.2513,-88.0778,9.68,4.6,45.24,-9999.0,'1111122,1111122,1111122' 
DISL,ioos:station:DISL:DISL:1,2009-09-04T10:00:00Z,30.2513,-88.0778,9.68,4.16,52.18,-9999.0,'1111122,1111122,1111122' 
DISL,ioos:station:DISL:DISL:1,2009-09-04T10:30:00Z,30.2513,-88.0778,9.68,4.96,50.59,-9999.0,'1111122,1111122,1111122' 
DISL,ioos:station:DISL:DISL:1,2009-09-04T11:00:00Z,30.2513,-88.0778,9.68,5.99,57.68,-9999.0,'1111122,1111122,1111122' 
DISL,ioos:station:DISL:DISL:1,2009-09-04T11:30:00Z,30.2513,-88.0778,9.68,6.3,60.08,-9999.0,'1111122,1111122,1111122' 
DISL,ioos:station:DISL:DISL:1,2009-09-04T12:00:00Z,30.2513,-88.0778,9.68,5.86,63.93,-9999.0,'1111122,1111122,1111122' 
DISL,ioos:station:DISL:DISL:1,2009-09-04T12:30:00Z,30.2513,-88.0778,9.68,6.3,66.08,-9999.0,'1111122,1111122,1111122' 
DISL,ioos:station:DISL:DISL:1,2009-09-04T13:00:00Z,30.2513,-88.0778,9.68,5.79,64.72,-9999.0,'1111122,1111122,1111122' 
DISL,ioos:station:DISL:DISL:1,2009-09-04T13:30:00Z,30.2513,-88.0778,9.68,5.5,71.4,-9999.0,'1111122,1111122,1111122' 
DISL,ioos:station:DISL:DISL:1,2009-09-04T14:00:00Z,30.2513,-88.0778,9.68,5.96,71.2,-9999.0,'1111122,1111122,1111122' 
DISL,ioos:station:DISL:DISL:1,2009-09-04T14:30:00Z,30.2513,-88.0778,9.68,4.83,71.2,-9999.0,'1111122,1111122,1111122' 
DISL,ioos:station:DISL:DISL:1,2009-09-04T15:00:00Z,30.2513,-88.0778,9.68,4.94,69.09,-9999.0,'1111122,1111122,1111122' 
DISL,ioos:station:DISL:DISL:1,2009-09-04T15:30:00Z,30.2513,-88.0778,9.68,5.02,73.2,-9999.0,'1111122,1111122,1111122' 
DISL,ioos:station:DISL:DISL:1,2009-09-04T16:00:00Z,30.2513,-88.0778,9.68,5.24,75.3,-9999.0,'1111122,1111122,1111122' 
DISL,ioos:station:DISL:DISL:1,2009-09-04T16:30:00Z,30.2513,-88.0778,9.68,6.34,96.2,-9999.0,'1111122,1111122,1111122' 
DISL,ioos:station:DISL:DISL:1,2009-09-04T17:00:00Z,30.2513,-88.0778,9.68,8.27,98.1,-9999.0,'1111122,1111122,1111122' 
DISL,ioos:station:DISL:DISL:1,2009-09-04T17:30:00Z,30.2513,-88.0778,9.68,7.35,100.5,-9999.0,'1111122,1111122,1111122' 
DISL,ioos:station:DISL:DISL:1,2009-09-04T18:00:00Z,30.2513,-88.0778,9.68,7.5,99.8,-9999.0,'1111122,1111122,1111122' 
DISL,ioos:station:DISL:DISL:1,2009-09-04T18:30:00Z,30.2513,-88.0778,9.68,8.05,100.4,-9999.0,'1111122,1111122,1111122' 
DISL,ioos:station:DISL:DISL:1,2009-09-04T19:00:00Z,30.2513,-88.0778,9.68,6.69,114.6,-9999.0,'1111122,1111122,1111122' 
DISL,ioos:station:DISL:DISL:1,2009-09-04T19:30:00Z,30.2513,-88.0778,9.68,6.33,105.8,-9999.0,'1111122,1111122,1111122' 
DISL,ioos:station:DISL:DISL:1,2009-09-04T20:00:00Z,30.2513,-88.0778,9.68,6.94,101.2,-9999.0,'1111122,1111122,1111122' 
DISL,ioos:station:DISL:DISL:1,2009-09-04T20:30:00Z,30.2513,-88.0778,9.68,5.21,116.6,-9999.0,'1111122,1111122,1111122' 
DISL,ioos:station:DISL:DISL:1,2009-09-04T21:00:00Z,30.2513,-88.0778,9.68,5.67,111.2,-9999.0,'1111122,1111122,1111122' 
DISL,ioos:station:DISL:DISL:1,2009-09-04T21:30:00Z,30.2513,-88.0778,9.68,6.0,115.0,-9999.0,'1111122,1111122,1111122' 
DISL,ioos:station:DISL:DISL:1,2009-09-04T22:00:00Z,30.2513,-88.0778,9.68,5.37,113.2,-9999.0,'1111122,1111122,1111122' 
DISL,ioos:station:DISL:DISL:1,2009-09-04T22:30:00Z,30.2513,-88.0778,9.68,4.44,109.6,-9999.0,'1111122,1111122,1111122' 
DISL,ioos:station:DISL:DISL:1,2009-09-04T23:00:00Z,30.2513,-88.0778,9.68,5.15,101.7,-9999.0,'1111122,1111122,1111122' 
DISL,ioos:station:DISL:DISL:1,2009-09-04T23:30:00Z,30.2513,-88.0778,9.68,5.76,96.1,-9999.0,'1111122,1111122,1111122' 
DISL,ioos:station:DISL:DISL:1,2009-09-05T00:00:00Z,30.2513,-88.0778,9.68,5.21,91.3,-9999.0,'1111122,1111122,1111122' 
DISL,ioos:station:DISL:DISL:1,2009-09-05T00:30:00Z,30.2513,-88.0778,9.68,5.63,80.5,-9999.0,'1111122,1111122,1111122' 
DISL,ioos:station:DISL:DISL:1,2009-09-05T01:00:00Z,30.2513,-88.0778,9.68,6.33,73.1,-9999.0,'1111122,1111122,1111122' 
DISL,ioos:station:DISL:DISL:1,2009-09-05T01:30:00Z,30.2513,-88.0778,9.68,6.61,58.12,-9999.0,'1111122,1111122,1111122' 
DISL,ioos:station:DISL:DISL:1,2009-09-05T02:00:00Z,30.2513,-88.0778,9.68,6.87,66.46,-9999.0,'1111122,1111122,1111122' 
DISL,ioos:station:DISL:DISL:1,2009-09-05T02:30:00Z,30.2513,-88.0778,9.68,7.11,36.59,-9999.0,'1111122,1111122,1111122' 
DISL,ioos:station:DISL:DISL:1,2009-09-05T03:00:00Z,30.2513,-88.0778,9.68,7.73,39.87,-9999.0,'1111122,1111122,1111122' 
DISL,ioos:station:DISL:DISL:1,2009-09-05T03:30:00Z,30.2513,-88.0778,9.68,6.55,48.65,-9999.0,'1111122,1111122,1111122' 
DISL,ioos:station:DISL:DISL:1,2009-09-05T04:00:00Z,30.2513,-88.0778,9.68,6.98,55.65,-9999.0,'1111122,1111122,1111122' 